Amarillo, TX

7:06 AM CDT on March 23, 2017 (GMT -0500)
Amarillo International

Weather History for KAMA - October, 2012

Change the Weather History Date:

Monday, October 22, 2012

  Actual Average Record
Temperature  
Mean Temperature 71 °F 56 °F  
Max Temperature 85 °F 70 °F 89 °F (1961)
Min Temperature 56 °F 43 °F 26 °F (1906)
Degree Days  
Heating Degree Days 0 9  
Month to date heating degree days 140 138  
Since 1 July heating degree days 169 182  
Cooling Degree Days 6 0  
Month to date cooling degree days 16 25  
Year to date cooling degree days 1995 1395  
Growing Degree Days 20 (Base 50)    
Moisture  
Dew Point 36 °F    
Average Humidity 31    
Maximum Humidity 47    
Minimum Humidity 14    
Precipitation  
Precipitation 0.00 in 0.05 in 1.56 in (1953)
Month to date precipitation 0.01 1.28  
Year to date precipitation 11.78 18.47  
Snow  
Snow 0.00 in 0.10 in 5.00 in (1906)
Month to date snowfall 0.0 0.1  
Since 1 July snowfall T 0.1  
Since 1 September snowfall T 0.1  
Snow Depth 0.00 in    
Sea Level Pressure  
Sea Level Pressure 29.74 in    
Wind  
Wind Speed 13 mph (SW)    
Max Wind Speed 24 mph    
Max Gust Speed 30 mph    
Visibility 10 miles    
Events      
T = Trace of Precipitation, MM = Missing Value Source: NWS Daily Summary

Daily Weather History Graph

Daily Weather History Graph

Search for Another Location

Airport or City:

Trip Planner

Search our weather history database for the weather conditions in past years. The results will help you decide how hot, cold, wet, or windy it might be!

Date:

Astronomy

Oct. 22, 2012 Rise Set
Actual Time 7:59 AM CDT 7:02 PM CDT
Civil Twilight 7:33 AM CDT 7:28 PM CDT
Nautical Twilight 7:03 AM CDT 7:57 PM CDT
Astronomical Twilight 6:34 AM CDT 8:27 PM CDT
Moon 2:58 PM CDT (10/22) 1:03 AM CDT (10/22)
Length of Visible Light 11h 54m
Length of Day
11h 02m
First Quarter, 56% of the Moon is Illuminated
Oct 22
First Quarter
Oct 29
Full
Nov 6
Last Quarter
Nov 13
New
Nov 20
First Quarter

Hourly Weather History & Observations

Time (CDT) Temp. Dew Point Humidity Pressure Visibility Wind Dir Wind Speed Gust Speed Precip Events Conditions
12:53 AM 57.9 °F 34.0 °F 41% 29.71 in 10.0 mi SSW 6.9 mph - N/A   Clear
1:53 AM 57.0 °F 35.1 °F 44% 29.70 in 10.0 mi SW 5.8 mph - N/A   Clear
2:53 AM 57.9 °F 35.1 °F 42% 29.70 in 10.0 mi SSW 10.4 mph - N/A   Clear
3:53 AM 68.0 °F 34.0 °F 28% 29.70 in 10.0 mi WSW 17.3 mph - N/A   Clear
4:53 AM 70.0 °F 34.0 °F 27% 29.67 in 10.0 mi West 13.8 mph 27.6 mph N/A   Partly Cloudy
5:53 AM 69.1 °F 35.1 °F 29% 29.70 in 10.0 mi WSW 15.0 mph - N/A   Clear
6:53 AM 66.0 °F 36.0 °F 33% 29.73 in 10.0 mi SW 13.8 mph - N/A   Clear
8:53 AM 59.0 °F 39.0 °F 48% 29.80 in 10.0 mi South 9.2 mph - N/A   Clear
9:53 AM 66.9 °F 41.0 °F 39% 29.80 in 10.0 mi SSW 11.5 mph - N/A   Clear
10:53 AM 73.0 °F 42.1 °F 33% 29.80 in 10.0 mi South 12.7 mph - N/A   Clear
11:53 AM 77.0 °F 41.0 °F 28% 29.79 in 10.0 mi SW 13.8 mph 23.0 mph N/A   Clear
12:53 PM 79.0 °F 39.0 °F 24% 29.78 in 10.0 mi SSW 11.5 mph 21.9 mph N/A   Clear
1:53 PM 81.0 °F 37.9 °F 21% 29.74 in 10.0 mi SSW 16.1 mph 24.2 mph N/A   Clear
2:53 PM 84.0 °F 35.1 °F 17% 29.71 in 10.0 mi WSW 18.4 mph - N/A   Clear
3:53 PM 84.0 °F 33.1 °F 16% 29.68 in 10.0 mi West 12.7 mph - N/A   Clear
4:53 PM 84.2 °F 30.2 °F 14% 29.83 in 10.0 mi WSW 20.7 mph 25.3 mph N/A   Clear
5:53 PM 82.0 °F 32.0 °F 16% 29.68 in 10.0 mi SW 15.0 mph 26.5 mph N/A   Clear
6:53 PM 75.0 °F 33.1 °F 22% 29.71 in 10.0 mi SSW 10.4 mph - N/A   Clear
7:53 PM 70.0 °F 33.1 °F 26% 29.75 in 10.0 mi South 10.4 mph - N/A   Clear
8:53 PM 66.0 °F 33.1 °F 29% 29.77 in 10.0 mi South 11.5 mph - N/A   Clear
9:53 PM 62.1 °F 34.0 °F 35% 29.76 in 10.0 mi SSW 11.5 mph - N/A   Clear
10:53 PM 62.1 °F 34.0 °F 35% 29.75 in 10.0 mi South 11.5 mph - N/A   Clear
11:53 PM 62.6 °F 35.6 °F 37% 29.89 in 10.0 mi South 15.0 mph - N/A   Clear